This demonstration page uses our WeatherBlox Daily Observations layout. Learn more.

Left ArrowRight Arrow

Hourly Observations for June 7, 2017

Temp ( °F °C ) Dew Point ( °F °C ) Humidity (%) Winds ( mph kmh ) Pressure ( in mb ) Visibility ( mi km ) Precip ( " mm )
12:52 am 00:52 Clear 58 14.4 51 10.6 78 78 N 3 6 30.00 1016 10 16 0.00 0.00
1:52 am 01:52 Clear 57 13.9 51 10.6 81 81 N 3 6 30.00 1016 10 16 0.00 0.00
2:52 am 02:52 Clear 58 14.4 49 9.4 72 72 NNE 5 7 30.00 1016 10 16 0.00 0.00
3:52 am 03:52 Clear 57 13.9 50 10 78 78 NNE 5 7 30.00 1016 10 16 0.00 0.00
4:52 am 04:52 Clear 55 12.8 50 10 83 83 NNE 3 6 30.00 1016 10 16 0.00 0.00
5:52 am 05:52 Clear 55 12.8 49 9.4 80 80 NE 5 7 30.02 1017 10 16 0.00 0.00
6:52 am 06:52 Sunny 59 15 50 10 72 72 NE 8 13 30.04 1017 10 16 0.00 0.00
7:52 am 07:52 Sunny 62 16.7 50 10 65 65 ENE 8 13 30.06 1018 10 16 0.00 0.00
8:52 am 08:52 Sunny 67 19.4 51 10.6 57 57 E 8 13 30.06 1018 10 16 0.00 0.00
9:52 am 09:52 Sunny 73 22.8 47 8.3 40 40 E 13 20 30.06 1018 10 16 0.00 0.00
10:52 am 10:52 Sunny 75 23.9 48 8.9 39 39 NE 14 22 30.06 1018 10 16 0.00 0.00
11:52 am 11:52 Sunny 76 24.4 48 8.9 37 37 NNE 14 22 30.06 1018 10 16 0.00 0.00
12:52 pm 12:52 Sunny 77 25 46 7.8 33 33 NE 12 19 30.06 1018 10 16 0.00 0.00
1:52 pm 13:52 Sunny 77 25 46 7.8 33 33 ENE 8 13 30.05 1018 10 16 0.00 0.00
2:52 pm 14:52 Sunny 78 25.6 47 8.3 33 33 ENE 12 19 30.03 1017 10 16 0.00 0.00
3:52 pm 15:52 Sunny 79 26.1 49 9.4 35 35 NNE 14 22 30.02 1017 10 16 0.00 0.00
4:52 pm 16:52 Sunny 78 25.6 49 9.4 36 36 NE 9 15 30.01 1016 10 16 0.00 0.00
5:52 pm 17:52 Sunny 78 25.6 50 10 37 37 NNE 12 19 30.01 1016 10 16 0.00 0.00
6:52 pm 18:52 Sunny 76 24.4 50 10 40 40 NNE 9 15 30.01 1016 10 16 0.00 0.00
7:52 pm 19:52 Sunny 74 23.3 51 10.6 45 45 N 7 11 30.00 1016 10 16 0.00 0.00
8:52 pm 20:52 Clear 70 21.1 51 10.6 51 51 NNE 5 7 30.00 1016 10 16 0.00 0.00
9:52 pm 21:52 Clear 65 18.3 54 12.2 68 68 Calm 30.01 1016 10 16 0.00 0.00
10:52 pm 22:52 Clear 62 16.7 53 11.7 73 73 Calm 30.02 1017 10 16 0.00 0.00
11:52 pm 23:52 Clear 59 15 53 11.7 81 81 Calm 30.02 1017 10 16 0.00 0.00

Powered by AerisWeather